BAW462V EGLL-LEMD

Flight info

Callsign BAW462V
Flight time N/A
Altitude 32000
Route GASGU N866 SAM M195 MARUK N621 LELNA DCT NOVAN DCT DELOG N864 NONTU
Aircraft A320/M-SDE3FGHIRWY/LB1

Departure

Time 2026-05-04 22:01
Airport London Heathrow Airport (EGLL)

Arrival

Time N/A
Airport Adolfo Suárez Madrid–Barajas Airport (LEMD)
Time Latitude Longitude Altitude Speed Heading
2026-05-04 21:43 51.47361 -0.48584 85 ft 0 kts 269°
2026-05-04 21:52 51.47361 -0.48583 85 ft 1 kts 269°
2026-05-04 21:52 51.47362 -0.48558 89 ft 3 kts 265°
2026-05-04 21:53 51.47364 -0.48526 85 ft 3 kts 256°
2026-05-04 21:53 51.47370 -0.48496 88 ft 3 kts 233°
2026-05-04 21:53 51.47382 -0.48478 87 ft 2 kts 187°
2026-05-04 21:53 51.47386 -0.48477 86 ft 0 kts 181°
2026-05-04 21:56 51.47378 -0.48477 90 ft 7 kts 181°
2026-05-04 21:56 51.47305 -0.48476 85 ft 12 kts 175°
2026-05-04 21:56 51.47260 -0.48377 86 ft 13 kts 114°
2026-05-04 21:57 51.47179 -0.48354 89 ft 13 kts 183°
2026-05-04 21:57 51.47083 -0.48358 85 ft 15 kts 180°
2026-05-04 21:57 51.46975 -0.48357 85 ft 16 kts 179°
2026-05-04 21:57 51.46886 -0.48356 87 ft 10 kts 179°
2026-05-04 21:58 51.46813 -0.48355 85 ft 11 kts 179°
2026-05-04 21:58 51.46745 -0.48408 85 ft 12 kts 254°
2026-05-04 21:58 51.46743 -0.48559 85 ft 17 kts 265°
2026-05-04 21:58 51.46713 -0.48740 86 ft 17 kts 212°
2026-05-04 21:59 51.46638 -0.48754 85 ft 0 kts 184°
2026-05-04 21:59 51.46635 -0.48755 85 ft 0 kts 185°
2026-05-04 21:59 51.46627 -0.48756 88 ft 8 kts 186°
2026-05-04 22:00 51.46520 -0.48779 87 ft 18 kts 161°
2026-05-04 22:00 51.46478 -0.48611 86 ft 18 kts 88°
2026-05-04 22:00 51.46479 -0.48347 87 ft 44 kts 90°
2026-05-04 22:00 51.46482 -0.47498 81 ft 105 kts 89°
2026-05-04 22:01 51.46487 -0.46076 87 ft 149 kts 89°
2026-05-04 22:01 51.46481 -0.44247 295 ft 171 kts 89°
2026-05-04 22:01 51.46459 -0.42313 888 ft 177 kts 92°
2026-05-04 22:01 51.46062 -0.40440 1481 ft 181 kts 121°
2026-05-04 22:02 51.45315 -0.38786 2047 ft 186 kts 123°
2026-05-04 22:02 51.44516 -0.37016 2302 ft 207 kts 123°
2026-05-04 22:02 51.43616 -0.35058 2571 ft 231 kts 130°
2026-05-04 22:02 51.42261 -0.33440 2965 ft 256 kts 154°
2026-05-04 22:03 51.40533 -0.32794 3650 ft 267 kts 178°
2026-05-04 22:03 51.38706 -0.33349 4442 ft 272 kts 205°
2026-05-04 22:03 51.37161 -0.35056 5319 ft 271 kts 224°
2026-05-04 22:03 51.35755 -0.37103 5834 ft 274 kts 223°
2026-05-04 22:04 51.34833 -0.38453 5935 ft 272 kts 223°
2026-05-04 22:04 51.33434 -0.40495 6001 ft 272 kts 223°
2026-05-04 22:04 51.32032 -0.42534 6094 ft 274 kts 223°
2026-05-04 22:04 51.30727 -0.44750 6911 ft 274 kts 238°
2026-05-04 22:05 51.29983 -0.47491 7669 ft 275 kts 255°
2026-05-04 22:05 51.29461 -0.50447 8442 ft 278 kts 254°
2026-05-04 22:05 51.28929 -0.53433 9212 ft 281 kts 254°